Theta_e
301 301 302 304 306 313 316 314 306 309 314 310 306 305 306 306 305 307 306 307 305 307 306 310 308 307 305 303 305 305 305 306 315 319 315 315 318 317 316 322 322 319 319 320
300 301 302 303 305 310 312 308 307 308 313 305 304 304 305 305 305 304 306 305 304 304 303 305 306 304 304 304 303 303 303 302 306 311 316 310 310 310 310 316 317 322 324 325
300 300 301 302 304 310 312 309 303 305 306 305 303 302 303 305 305 304 304 304 303 303 303 303 303 304 305 304 303 304 303 303 311 308 310 309 307 308 307 314 318 321 321 323
300 300 301 302 306 307 309 306 304 303 299 301 302 303 303 304 304 304 304 304 303 302 303 303 304 304 304 303 303 302 300 300 302 302 303 304 304 304 304 309 313 319 319 321
299 300 300 302 307 307 307 306 303 303 301 304 302 302 303 305 304 304 304 304 304 303 303 303 303 303 302 302 301 301 298 300 302 303 304 304 306 305 307 308 310 318 318 320
299 300 300 301 303 306 305 304 304 304 303 302 302 303 304 305 304 305 305 304 303 303 303 303 304 304 303 302 301 300 299 300 302 305 305 304 304 303 306 308 321 321 319 319
299 300 300 300 301 302 306 306 306 305 301 303 303 305 304 304 305 304 304 304 303 303 304 303 303 302 301 302 302 300 302 304 303 301 303 304 303 306 310 312 316 318 318 318
299 300 300 300 301 303 303 305 305 305 301 303 305 305 304 304 305 304 304 304 304 303 302 300 300 299 300 302 304 303 304 306 307 300 302 303 305 309 309 311 312 313 316 317
298 299 299 300 300 302 303 304 306 305 304 304 305 305 305 302 301 302 303 304 303 303 299 299 302 301 303 302 303 302 303 306 308 306 305 306 309 308 308 308 311 311 312 314
298 299 299 299 300 302 302 303 304 305 306 306 306 305 304 305 304 300 303 304 303 302 298 301 301 302 301 302 303 304 302 306 307 308 309 307 308 307 307 312 308 309 309 310
299 299 299 299 301 301 302 302 303 305 306 306 306 306 306 306 306 300 304 301 303 301 299 300 300 301 300 300 301 303 303 304 304 305 307 308 307 307 308 308 307 307 308 310
298 299 299 299 301 302 302 302 305 307 307 306 306 306 306 306 307 306 304 303 303 303 302 298 299 299 298 299 301 301 303 305 307 307 306 305 306 306 306 305 306 306 307 310
298 298 299 299 300 303 303 302 305 307 307 306 306 306 306 307 307 306 304 304 304 304 303 302 300 301 299 302 302 303 303 304 305 304 305 305 303 303 307 310 306 307 310 309
298 298 298 299 300 301 305 302 302 303 305 305 305 307 307 307 307 306 304 303 302 302 302 300 300 302 301 305 305 305 304 302 305 304 304 303 304 303 309 306 302 303 302 301
298 298 298 300 302 302 305 304 303 303 302 302 307 307 307 307 307 307 305 303 302 301 300 301 302 302 302 301 302 304 302 304 306 306 301 299 299 302 302 305 304 303 302 302
299 299 299 303 302 303 305 304 303 303 304 304 303 306 307 306 306 307 307 305 304 301 300 300 301 302 303 302 304 302 303 303 301 303 300 300 300 303 303 303 303 304 304 303
303 303 302 305 305 305 304 304 303 305 305 305 305 305 306 306 305 306 306 306 305 304 302 303 303 303 303 302 296 305 304 302 301 301 301 301 302 303 303 302 302 302 302 302
304 305 305 307 305 305 305 305 306 306 307 306 302 303 306 305 305 304 306 307 305 306 305 305 304 303 304 299 306 304 305 305 302 301 302 302 302 302 302 302 302 302 301 301
303 307 307 307 306 306 305 306 307 307 306 306 305 295 299 304 304 304 306 307 304 306 306 305 304 302 305 307 306 306 303 303 304 302 301 302 302 302 302 302 302 302 302 301
301 306 307 304 305 307 307 309 308 307 307 306 304 304 297 304 304 304 304 307 306 303 302 305 303 304 306 307 308 307 304 302 302 302 302 302 302 302 302 302 302 302 302 302
304 304 305 306 308 308 309 309 308 307 304 305 304 304 303 304 304 301 304 302 305 304 305 303 305 306 303 308 309 307 304 303 303 303 303 303 302 302 303 303 303 303 302 302
306 306 307 308 307 306 304 301 304 303 302 304 303 304 304 305 306 306 306 307 307 310 306 306 307 302 306 307 308 309 309 303 304 303 303 303 303 303 303 303 302 302 301 301
307 307 307 307 306 300 304 304 300 299 304 304 304 304 305 306 306 306 306 307 307 307 306 306 304 305 307 306 308 307 309 309 305 304 304 304 304 304 304 304 304 303 302 302
308 307 300 301 301 303 304 300 304 304 304 304 305 305 305 307 307 307 307 307 305 305 308 307 305 307 305 306 308 309 310 308 309 309 305 305 305 305 306 306 304 304 300 299
307 307 302 305 307 306 306 304 304 304 305 306 306 307 307 307 305 303 303 305 307 306 307 306 306 302 302 303 308 309 308 309 308 308 307 307 307 306 303 302 301 301 300 299
307 307 306 307 306 306 307 308 308 308 308 308 308 308 305 305 301 305 305 305 307 305 306 306 304 302 303 306 309 309 309 309 308 309 309 308 307 306 306 306 304 303 302 301
307 307 306 307 306 307 308 308 308 308 309 308 307 304 305 303 301 304 304 305 305 306 306 302 302 302 302 305 308 308 308 308 309 308 307 308 308 308 307 307 307 306 305 303
Wind_Speed
33 35 36 32 22 7 7 5 5 25 6 10 6 4 5 8 17 15 11 6 7 4 6 5 3 5 5 19 18 6 4 4 5 7 22 8 5 9 7 3 7 3 2 8
32 34 37 33 23 11 8 9 10 35 7 5 3 8 8 12 12 10 4 6 6 3 4 3 6 6 6 19 15 8 6 3 7 10 3 6 7 7 13 6 3 6 3 6
32 34 37 36 26 10 9 6 4 15 33 15 8 4 9 4 12 16 9 4 4 4 4 3 3 9 7 24 19 12 3 2 5 9 9 9 16 17 10 4 4 9 10 11
31 33 36 36 32 7 7 9 6 11 4 10 16 16 4 6 5 9 16 7 6 3 5 6 5 3 10 7 8 4 2 4 7 12 13 14 20 25 18 13 11 11 20 20
29 32 33 37 30 19 20 9 9 21 9 14 16 9 4 9 4 6 4 5 1 4 3 4 6 7 2 6 4 2 1 4 5 15 16 18 12 12 15 16 18 13 19 20
28 30 31 32 33 27 36 28 15 9 13 7 5 4 5 7 8 10 12 8 4 3 4 18 25 24 21 14 3 2 0 2 3 10 7 8 9 4 7 12 4 2 4 4
24 27 29 29 29 30 21 18 14 15 4 8 5 8 9 9 13 3 13 15 5 10 20 18 10 8 9 4 1 8 3 3 3 4 2 2 6 8 10 10 9 5 8 11
21 24 27 28 23 23 21 15 17 10 3 5 10 14 7 7 14 7 7 21 13 17 9 5 6 6 6 6 3 4 1 2 3 2 2 7 4 7 10 8 13 14 12 13
19 20 22 25 21 18 19 17 13 9 9 4 3 6 9 2 5 10 3 23 12 12 6 4 3 2 3 5 7 9 9 5 4 3 3 3 6 16 23 17 9 13 20 18
19 18 19 20 20 17 19 17 9 11 12 9 12 7 4 6 9 2 7 14 11 15 4 3 3 3 2 3 5 6 7 3 4 6 3 4 5 26 27 3 6 29 23 25
18 18 16 17 19 15 17 16 10 12 10 9 11 12 13 7 10 1 8 3 8 6 4 3 3 1 3 4 4 5 3 5 3 3 3 4 19 23 4 6 22 23 26 22
18 17 16 16 18 13 16 15 12 15 13 10 11 10 9 14 12 10 4 1 2 1 1 1 1 2 3 3 3 4 4 1 4 4 4 19 29 29 27 26 26 32 24 9
16 14 14 15 14 12 11 19 10 19 20 15 10 8 8 12 13 13 4 1 1 1 1 1 0 3 1 2 3 4 4 4 3 6 5 22 34 34 29 14 9 26 25 15
14 14 13 11 12 10 9 14 17 7 6 4 4 6 8 8 11 16 12 5 2 4 2 2 1 2 2 2 4 3 4 11 6 5 7 24 28 36 25 19 15 32 32 27
13 13 12 9 11 8 6 8 19 13 3 4 5 7 8 7 6 12 13 11 10 5 3 4 1 4 4 5 4 3 12 7 5 3 13 9 17 25 25 22 28 28 29 30
12 13 9 9 9 11 5 5 12 13 10 3 2 4 5 10 8 10 12 11 10 6 4 2 4 5 4 3 3 7 10 18 21 7 14 20 12 24 24 25 23 28 29 29
10 10 8 10 10 10 9 4 7 7 5 3 2 2 3 12 7 8 9 9 8 8 3 3 3 3 4 1 2 14 11 15 21 17 15 16 24 21 24 26 26 26 26 26
7 7 4 8 9 13 10 11 9 5 5 4 3 4 2 12 6 4 9 6 4 6 4 4 4 8 4 2 19 19 15 9 15 18 18 17 16 16 22 24 24 27 27 26
4 6 5 4 8 7 7 6 10 14 7 3 4 2 3 10 8 5 5 4 3 4 4 4 5 2 3 6 22 18 15 12 5 14 16 17 19 20 20 20 21 21 20 19
4 3 3 3 6 6 4 2 3 4 5 6 4 7 2 8 7 6 8 3 2 2 2 4 3 2 16 26 19 15 11 9 10 7 11 15 15 16 16 17 16 18 18 15
6 4 4 6 6 4 3 3 5 5 4 7 7 6 6 4 3 3 3 2 2 3 4 2 4 5 21 30 22 11 8 8 9 10 8 10 11 11 12 13 14 15 15 13
6 3 5 5 5 5 5 3 4 6 1 8 7 7 6 4 3 3 1 2 3 3 6 3 5 5 24 29 19 13 6 3 5 6 8 9 11 10 10 11 11 10 9 9
5 4 3 4 5 9 4 5 4 3 7 7 11 7 5 3 3 3 2 4 1 3 3 2 3 21 25 29 12 6 5 3 1 1 2 4 6 6 5 6 10 12 9 7
4 4 5 3 3 1 0 1 3 4 7 8 10 6 3 3 4 3 3 2 4 3 4 2 9 27 23 17 18 18 9 2 3 5 3 6 5 6 7 5 5 9 8 9
4 4 3 2 2 1 1 2 3 2 4 8 6 4 4 3 3 5 3 4 4 3 2 3 23 24 26 23 18 20 26 13 8 7 4 7 6 6 12 13 12 14 17 15
4 5 3 1 2 1 3 4 7 3 6 6 2 2 2 4 2 4 4 3 4 2 6 18 18 22 22 18 13 14 14 14 10 4 4 3 2 3 6 8 9 9 10 11
3 3 3 1 3 3 8 9 9 7 4 1 2 3 2 1 3 3 1 1 3 9 16 14 17 18 17 17 13 15 13 12 12 7 7 7 2 4 5 5 4 4 3 3
Wind_Direction
11 10 8 8 13 61 140 74 56 1 52 53 52 43 6 48 5 38 53 72 57 53 348 28 90 60 35 21 14 2 2 280 280 280 300 327 32 21 47 43 305 261 228 261
14 14 12 12 11 33 83 85 44 32 91 91 53 61 68 82 47 31 62 45 54 360 34 47 63 25 351 15 7 358 349 323 318 304 358 33 40 353 1 291 209 251 202 274
17 17 17 12 21 38 101 90 43 35 57 76 110 108 33 82 44 42 50 19 63 34 46 338 9 2 343 331 323 329 336 287 260 267 296 314 302 311 328 293 285 321 282 311
22 21 21 24 17 43 91 66 62 59 6 30 70 75 29 28 34 62 26 28 52 38 39 343 355 272 312 300 295 336 148 243 247 269 282 299 288 288 290 265 262 260 286 287
23 24 26 32 43 63 97 95 108 89 66 56 56 35 31 41 21 31 38 49 13 73 125 205 279 290 263 248 318 306 323 264 278 285 276 266 275 298 282 268 263 256 266 264
26 27 30 32 42 58 80 80 92 95 30 43 64 21 39 38 25 70 56 11 5 328 299 300 286 281 271 260 265 279 196 324 319 283 278 291 295 242 278 278 211 268 260 312
29 32 34 37 38 44 84 87 80 79 33 63 56 49 70 43 24 11 18 15 11 313 317 312 303 289 295 278 347 202 200 306 231 279 236 247 242 8 322 319 280 3 311 306
30 33 35 38 44 43 49 88 103 86 75 98 75 58 44 20 11 360 4 359 343 334 337 19 7 351 9 327 30 196 16 3 290 290 248 281 324 16 341 346 301 301 324 326
29 31 33 35 40 51 46 61 87 108 121 353 65 65 40 29 344 342 335 357 12 15 41 53 41 331 313 325 321 286 339 254 254 255 249 272 21 338 325 305 255 358 334 326
23 25 30 34 37 46 45 50 73 103 109 78 58 49 29 41 16 299 316 350 1 16 17 53 33 311 322 305 305 312 317 322 277 295 273 288 359 332 320 227 312 319 326 314
21 24 31 36 38 55 39 32 55 98 103 92 44 47 35 21 0 110 321 17 10 16 45 42 343 319 300 325 269 282 298 333 316 313 317 330 333 333 322 283 305 303 305 308
21 28 33 37 42 64 46 44 84 90 88 88 72 49 41 21 25 14 25 101 333 82 74 43 337 311 332 318 291 320 342 135 304 294 283 294 310 307 305 304 292 299 293 304
16 21 24 27 31 42 53 49 99 105 99 89 71 53 19 11 12 16 26 315 310 182 315 129 229 290 191 285 266 295 293 3 275 336 338 328 321 327 326 319 340 4 83 68
6 12 14 14 17 29 57 45 46 107 101 108 64 70 17 356 2 22 23 18 97 112 117 66 18 287 278 284 290 286 309 313 318 261 312 323 350 359 55 69 64 60 68 71
2 6 12 20 21 32 47 33 26 32 119 126 128 71 26 18 2 21 29 63 91 112 78 52 3 307 302 299 294 338 347 340 339 317 356 348 332 31 43 57 71 77 80 75
3 8 29 40 43 27 22 13 16 31 111 110 85 111 49 11 357 1 14 23 35 61 76 20 337 312 342 342 335 356 6 21 17 14 32 24 34 35 49 62 76 70 81 80
12 30 56 44 44 43 48 30 353 36 65 60 59 32 14 358 345 353 3 21 39 35 76 9 316 302 333 278 334 342 9 21 30 39 31 33 38 41 54 65 76 85 85 87
17 17 55 46 45 45 43 46 50 47 54 54 67 316 13 5 350 353 355 9 25 24 17 3 349 318 330 17 339 7 0 354 29 42 59 53 65 69 72 73 74 75 74 75
29 29 86 60 25 24 23 74 49 52 55 73 63 72 288 347 3 342 345 345 30 4 16 16 4 300 10 346 344 360 16 12 10 50 72 77 68 64 68 68 70 75 77 76
66 71 62 43 5 33 53 357 19 39 39 42 60 356 313 335 345 341 354 12 36 27 322 329 28 291 0 356 6 11 18 33 51 89 76 70 61 59 67 64 65 72 80 78
57 44 36 13 23 41 35 38 43 17 38 11 0 356 328 349 354 301 353 312 325 47 340 62 353 356 342 355 354 27 45 52 54 61 72 77 78 74 64 59 51 49 44 48
33 53 47 34 28 29 55 10 17 46 14 344 336 330 323 313 305 300 335 2 30 37 342 38 356 303 347 355 348 12 25 69 64 70 78 84 75 68 67 69 74 64 71 73
40 36 50 19 23 37 45 344 332 355 352 355 339 336 332 308 289 285 337 67 125 347 48 55 281 318 1 347 16 347 356 54 197 8 41 55 51 42 37 69 62 45 39 55
41 40 20 84 358 43 328 266 314 305 290 322 331 321 314 324 334 337 56 9 63 41 30 21 303 344 360 359 16 7 360 100 79 33 123 34 25 29 32 26 48 35 51 84
55 46 44 49 58 28 337 320 307 344 323 342 335 329 337 318 21 29 24 34 54 52 337 269 337 1 5 6 21 37 44 70 154 78 77 80 61 72 77 76 91 92 86 89
60 53 63 107 303 357 348 329 318 318 330 328 302 323 30 31 46 39 14 47 32 288 267 335 356 8 16 22 41 42 38 44 46 76 31 84 97 78 73 70 69 75 77 80
60 55 48 60 352 348 360 355 347 331 328 351 37 50 31 8 47 43 45 129 229 305 335 6 9 13 30 32 42 52 40 51 48 43 27 25 341 309 315 325 360 360 8 38